Year,Month,Day,Hour,Minute,Value (Times are PST for temperature in C)
2016,04,03,00,00,6.70
2016,04,03,00,01,6.70
2016,04,03,00,02,6.70
2016,04,03,00,03,6.70
2016,04,03,00,04,6.70
2016,04,03,00,05,6.70
2016,04,03,00,06,6.70
2016,04,03,00,07,6.70
2016,04,03,00,08,6.70
2016,04,03,00,09,6.70
2016,04,03,00,10,6.60
2016,04,03,00,11,6.60
2016,04,03,00,12,6.60
2016,04,03,00,17,6.60
2016,04,03,00,18,6.50
2016,04,03,00,19,6.50
2016,04,03,00,20,6.50
2016,04,03,00,21,6.50
2016,04,03,00,22,6.50
2016,04,03,00,23,6.50
2016,04,03,00,24,6.50
2016,04,03,00,25,6.40
2016,04,03,00,26,6.40
2016,04,03,00,27,6.40
2016,04,03,00,28,6.40
2016,04,03,00,29,6.40
2016,04,03,00,30,6.40
2016,04,03,00,31,6.40
2016,04,03,00,32,6.40
2016,04,03,00,33,6.40
2016,04,03,00,34,6.40
2016,04,03,00,35,6.40
2016,04,03,00,36,6.40
2016,04,03,00,37,6.30
2016,04,03,00,38,6.30
2016,04,03,00,39,6.30
2016,04,03,00,40,6.30
2016,04,03,00,41,6.30
2016,04,03,00,42,6.30
2016,04,03,00,43,6.30
2016,04,03,00,44,6.30
2016,04,03,00,45,6.30
2016,04,03,00,46,6.30
2016,04,03,00,47,6.30
2016,04,03,00,48,6.30
2016,04,03,00,49,6.30
2016,04,03,00,50,6.30
2016,04,03,00,51,6.30
2016,04,03,00,52,6.30
2016,04,03,00,53,6.30
2016,04,03,00,54,6.20
2016,04,03,00,55,6.20
2016,04,03,00,56,6.20
2016,04,03,00,57,6.20
2016,04,03,00,58,6.20
2016,04,03,00,59,6.20
2016,04,03,01,00,6.20
2016,04,03,01,01,6.20
2016,04,03,01,02,6.20
2016,04,03,01,03,6.20
2016,04,03,01,04,6.20
2016,04,03,01,05,6.20
2016,04,03,01,06,6.20
2016,04,03,01,07,6.20
2016,04,03,01,08,6.20
2016,04,03,01,09,6.10
2016,04,03,01,10,6.10
2016,04,03,01,11,6.10
2016,04,03,01,12,6.10
2016,04,03,01,13,6.10
2016,04,03,01,14,6.10
2016,04,03,01,15,6.00
2016,04,03,01,16,6.00
2016,04,03,01,17,6.00
2016,04,03,01,18,6.00
2016,04,03,01,19,6.00
2016,04,03,01,20,5.90
2016,04,03,01,21,6.00
2016,04,03,01,22,6.00
2016,04,03,01,23,6.00
2016,04,03,01,24,5.90
2016,04,03,01,25,5.90
2016,04,03,01,26,5.90
2016,04,03,01,27,5.90
2016,04,03,01,28,5.90
2016,04,03,01,29,5.90
2016,04,03,01,30,5.90
2016,04,03,01,31,5.90
2016,04,03,01,32,5.90
2016,04,03,01,33,5.90
2016,04,03,01,34,5.90
2016,04,03,01,35,5.90
2016,04,03,01,36,5.90
2016,04,03,01,37,5.90
2016,04,03,01,38,5.90
2016,04,03,01,39,5.90
2016,04,03,01,40,5.90
2016,04,03,01,41,5.80
2016,04,03,01,42,5.80
2016,04,03,01,43,5.80
2016,04,03,01,44,5.80
2016,04,03,01,45,5.80
2016,04,03,01,46,5.80
2016,04,03,01,47,5.80
2016,04,03,01,48,5.80
2016,04,03,01,49,5.80
2016,04,03,01,50,5.80
2016,04,03,01,51,5.80
2016,04,03,01,52,5.80
2016,04,03,01,53,5.80
2016,04,03,01,54,5.70
2016,04,03,01,55,5.70
2016,04,03,01,56,5.70
2016,04,03,01,57,5.70
2016,04,03,01,58,5.70
2016,04,03,01,59,5.70
2016,04,03,02,00,5.70
2016,04,03,02,01,5.70
2016,04,03,02,02,5.60
2016,04,03,02,03,5.60
2016,04,03,02,04,5.60
2016,04,03,02,05,5.60
2016,04,03,02,06,5.60
2016,04,03,02,07,5.60
2016,04,03,02,08,5.60
2016,04,03,02,09,5.50
2016,04,03,02,10,5.50
2016,04,03,02,11,5.50
2016,04,03,02,12,5.50
2016,04,03,02,13,5.50
2016,04,03,02,14,5.50
2016,04,03,02,15,5.60
2016,04,03,02,16,5.60
2016,04,03,02,17,5.60
2016,04,03,02,18,5.60
2016,04,03,02,19,5.60
2016,04,03,02,20,5.60
2016,04,03,02,21,5.70
2016,04,03,02,22,5.70
2016,04,03,02,23,5.70
2016,04,03,02,24,5.70
2016,04,03,02,25,5.70
2016,04,03,02,26,5.70
2016,04,03,02,27,5.70
2016,04,03,02,28,5.80
2016,04,03,02,29,5.70
2016,04,03,02,30,5.70
2016,04,03,02,31,5.70
2016,04,03,02,32,5.70
2016,04,03,02,33,5.70
2016,04,03,02,34,5.70
2016,04,03,02,35,5.70
2016,04,03,02,36,5.70
2016,04,03,02,37,5.70
2016,04,03,02,38,5.70
2016,04,03,02,39,5.70
2016,04,03,02,40,5.80
2016,04,03,02,41,5.80
2016,04,03,02,42,5.80
2016,04,03,02,43,5.80
2016,04,03,02,44,5.80
2016,04,03,02,45,5.80
2016,04,03,02,46,5.80
2016,04,03,02,47,5.70
2016,04,03,02,48,5.70
2016,04,03,02,49,5.70
2016,04,03,02,50,5.70
2016,04,03,02,51,5.60
2016,04,03,02,52,5.60
2016,04,03,02,53,5.60
2016,04,03,02,54,5.60
2016,04,03,02,55,5.60
2016,04,03,02,56,5.60
2016,04,03,02,57,5.60
2016,04,03,02,58,5.60
2016,04,03,02,59,5.70
2016,04,03,03,00,5.70
2016,04,03,03,01,5.70
2016,04,03,03,02,5.70
2016,04,03,03,03,5.70
2016,04,03,03,04,5.80
2016,04,03,03,05,5.80
2016,04,03,03,06,5.80
2016,04,03,03,07,5.80
2016,04,03,03,08,5.80
2016,04,03,03,09,5.70
2016,04,03,03,10,5.70
2016,04,03,03,11,5.70
2016,04,03,03,12,5.80
2016,04,03,03,13,5.80
2016,04,03,03,14,5.80
2016,04,03,03,15,5.80
2016,04,03,03,16,5.70
2016,04,03,03,17,5.70
2016,04,03,03,18,5.70
2016,04,03,03,19,5.70
2016,04,03,03,20,5.60
2016,04,03,03,21,5.60
2016,04,03,03,22,5.60
2016,04,03,03,23,5.60
2016,04,03,03,24,5.70
2016,04,03,03,25,5.70
2016,04,03,03,26,5.70
2016,04,03,03,27,5.70
2016,04,03,03,28,5.70
2016,04,03,03,29,5.70
2016,04,03,03,30,5.70
2016,04,03,03,31,5.70
2016,04,03,03,32,5.70
2016,04,03,03,33,5.70
2016,04,03,03,34,5.70
2016,04,03,03,35,5.70
2016,04,03,03,36,5.70
2016,04,03,03,37,5.70
2016,04,03,03,38,5.80
2016,04,03,03,39,5.80
2016,04,03,03,40,5.80
2016,04,03,03,41,5.90
2016,04,03,03,42,5.90
2016,04,03,03,43,5.90
2016,04,03,03,44,5.90
2016,04,03,03,45,5.90
2016,04,03,03,46,5.90
2016,04,03,03,47,5.90
2016,04,03,03,48,5.80
2016,04,03,03,49,5.80
2016,04,03,03,50,5.80
2016,04,03,03,51,5.80
2016,04,03,03,52,5.90
2016,04,03,03,53,5.90
2016,04,03,03,54,5.80
2016,04,03,03,55,5.80
2016,04,03,03,56,5.80
2016,04,03,03,57,5.80
2016,04,03,03,58,5.80
2016,04,03,03,59,5.80
2016,04,03,04,00,5.80
2016,04,03,04,01,5.80
2016,04,03,04,02,5.80
2016,04,03,04,03,5.80
2016,04,03,04,04,5.80
2016,04,03,04,05,5.80
2016,04,03,04,06,5.80
2016,04,03,04,07,5.80
2016,04,03,04,08,5.80
2016,04,03,04,09,5.80
2016,04,03,04,10,5.90
2016,04,03,04,11,5.90
2016,04,03,04,12,5.90
2016,04,03,04,13,5.90
2016,04,03,04,14,5.90
2016,04,03,04,15,5.90
2016,04,03,04,16,5.80
2016,04,03,04,17,5.80
2016,04,03,04,18,5.80
2016,04,03,04,19,5.80
2016,04,03,04,20,5.80
2016,04,03,04,21,5.80
2016,04,03,04,22,5.80
2016,04,03,04,23,5.70
2016,04,03,04,24,5.70
2016,04,03,04,25,5.70
2016,04,03,04,26,5.70
2016,04,03,04,27,5.60
2016,04,03,04,28,5.60
2016,04,03,04,29,5.60
2016,04,03,04,30,5.60
2016,04,03,04,31,5.60
2016,04,03,04,32,5.60
2016,04,03,04,33,5.60
2016,04,03,04,34,5.60
2016,04,03,04,35,5.60
2016,04,03,04,36,5.60
2016,04,03,04,37,5.60
2016,04,03,04,38,5.60
2016,04,03,04,39,5.50
2016,04,03,04,40,5.50
2016,04,03,04,41,5.50
2016,04,03,04,42,5.40
2016,04,03,04,43,5.40
2016,04,03,04,44,5.40
2016,04,03,04,45,5.50
2016,04,03,04,46,5.50
2016,04,03,04,47,5.60
2016,04,03,04,48,5.60
2016,04,03,04,49,5.60
2016,04,03,04,50,5.60
2016,04,03,04,51,5.60
2016,04,03,04,52,5.60
2016,04,03,04,53,5.60
2016,04,03,04,54,5.50
2016,04,03,04,55,5.50
2016,04,03,04,56,5.50
2016,04,03,04,57,5.40
2016,04,03,04,58,5.40
2016,04,03,04,59,5.40
2016,04,03,05,00,5.40
2016,04,03,05,01,5.40
2016,04,03,05,02,5.40
2016,04,03,05,03,5.40
2016,04,03,05,04,5.40
2016,04,03,05,05,5.40
2016,04,03,05,06,5.40
2016,04,03,05,07,5.40
2016,04,03,05,08,5.30
2016,04,03,05,09,5.30
2016,04,03,05,10,5.30
2016,04,03,05,11,5.30
2016,04,03,05,12,5.30
2016,04,03,05,13,5.30
2016,04,03,05,14,5.30
2016,04,03,05,15,5.30
2016,04,03,05,16,5.30
2016,04,03,05,17,5.30
2016,04,03,05,18,5.30
2016,04,03,05,19,5.30
2016,04,03,05,20,5.30
2016,04,03,05,21,5.30
2016,04,03,05,22,5.30
2016,04,03,05,23,5.30
2016,04,03,05,24,5.30
2016,04,03,05,25,5.30
2016,04,03,05,26,5.30
2016,04,03,05,27,5.30
2016,04,03,05,28,5.30
2016,04,03,05,29,5.30
2016,04,03,05,30,5.30
2016,04,03,05,31,5.30
2016,04,03,05,32,5.30
2016,04,03,05,33,5.40
2016,04,03,05,34,5.40
2016,04,03,05,35,5.40
2016,04,03,05,36,5.50
2016,04,03,05,37,5.50
2016,04,03,05,38,5.50
2016,04,03,05,39,5.60
2016,04,03,05,40,5.60
2016,04,03,05,41,5.60
2016,04,03,05,42,5.60
2016,04,03,05,43,5.60
2016,04,03,05,44,5.60
2016,04,03,05,45,5.50
2016,04,03,05,46,5.50
2016,04,03,05,47,5.50
2016,04,03,05,48,5.50
2016,04,03,05,49,5.50
2016,04,03,05,50,5.40
2016,04,03,05,51,5.40
2016,04,03,05,52,5.40
2016,04,03,05,53,5.40
2016,04,03,05,54,5.40
2016,04,03,05,55,5.40
2016,04,03,05,56,5.30
2016,04,03,05,57,5.30
2016,04,03,05,58,5.30
2016,04,03,05,59,5.30
2016,04,03,06,00,5.30
2016,04,03,06,01,5.30
2016,04,03,06,02,5.30
2016,04,03,06,03,5.30
2016,04,03,06,04,5.30
2016,04,03,06,05,5.30
2016,04,03,06,06,5.30
2016,04,03,06,07,5.30
2016,04,03,06,08,5.30
2016,04,03,06,09,5.30
2016,04,03,06,10,5.30
2016,04,03,06,11,5.30
2016,04,03,06,12,5.30
2016,04,03,06,13,5.30
2016,04,03,06,14,5.30
2016,04,03,06,15,5.30
2016,04,03,06,16,5.30
2016,04,03,06,17,5.30
2016,04,03,06,18,5.30
2016,04,03,06,19,5.30
2016,04,03,06,20,5.30
2016,04,03,06,21,5.30
2016,04,03,06,22,5.30
2016,04,03,06,23,5.30
2016,04,03,06,24,5.30
2016,04,03,06,25,5.40
2016,04,03,06,26,5.40
2016,04,03,06,27,5.40
2016,04,03,06,28,5.40
2016,04,03,06,29,5.40
2016,04,03,06,30,5.40
2016,04,03,06,31,5.40
2016,04,03,06,32,5.40
2016,04,03,06,33,5.40
2016,04,03,06,34,5.50
2016,04,03,06,35,5.50
2016,04,03,06,36,5.50
2016,04,03,06,37,5.50
2016,04,03,06,38,5.50
2016,04,03,06,39,5.50
2016,04,03,06,40,5.50
2016,04,03,06,41,5.50
2016,04,03,06,42,5.50
2016,04,03,06,43,5.50
2016,04,03,06,44,5.60
2016,04,03,06,45,5.60
2016,04,03,06,46,5.60
2016,04,03,06,47,5.60
2016,04,03,06,48,5.60
2016,04,03,06,49,5.60
2016,04,03,06,50,5.60
2016,04,03,06,51,5.60
2016,04,03,06,52,5.60
2016,04,03,06,53,5.60
2016,04,03,06,54,5.60
2016,04,03,06,55,5.60
2016,04,03,06,56,5.60
2016,04,03,06,57,5.60
2016,04,03,06,58,5.60
2016,04,03,06,59,5.60
2016,04,03,07,00,5.70
2016,04,03,07,01,5.70
2016,04,03,07,02,5.70
2016,04,03,07,03,5.70
2016,04,03,07,04,5.70
2016,04,03,07,05,5.70
2016,04,03,07,06,5.60
2016,04,03,07,07,5.70
2016,04,03,07,08,5.70
2016,04,03,07,09,5.70
2016,04,03,07,10,5.70
2016,04,03,07,11,5.70
2016,04,03,07,12,5.70
2016,04,03,07,13,5.70
2016,04,03,07,14,5.70
2016,04,03,07,15,5.70
2016,04,03,07,16,5.70
2016,04,03,07,17,5.70
2016,04,03,07,18,5.70
2016,04,03,07,19,5.70
2016,04,03,07,20,5.70
2016,04,03,07,21,5.70
2016,04,03,07,22,5.70
2016,04,03,07,23,5.70
2016,04,03,07,24,5.70
2016,04,03,07,25,5.70
2016,04,03,07,26,5.70
2016,04,03,07,27,5.70
2016,04,03,07,28,5.80
2016,04,03,07,29,5.80
2016,04,03,07,30,5.80
2016,04,03,07,31,5.80
2016,04,03,07,32,5.80
2016,04,03,07,33,5.80
2016,04,03,07,34,5.90
2016,04,03,07,35,5.90
2016,04,03,07,36,5.90
2016,04,03,07,37,5.90
2016,04,03,07,38,5.90
2016,04,03,07,39,5.90
2016,04,03,07,40,6.00
2016,04,03,07,41,6.00
2016,04,03,07,42,6.00
2016,04,03,07,43,6.10
2016,04,03,07,44,6.10
2016,04,03,07,45,6.10
2016,04,03,07,46,6.10
2016,04,03,07,47,6.20
2016,04,03,07,48,6.20
2016,04,03,07,49,6.20
2016,04,03,07,50,6.20
2016,04,03,07,51,6.20
2016,04,03,07,52,6.20
2016,04,03,07,53,6.20
2016,04,03,07,54,6.20
2016,04,03,07,55,6.20
2016,04,03,07,56,6.20
2016,04,03,07,57,6.30
2016,04,03,07,58,6.30
2016,04,03,07,59,6.30
2016,04,03,08,00,6.30
2016,04,03,08,01,6.30
2016,04,03,08,02,6.30
2016,04,03,08,03,6.30
2016,04,03,08,04,6.30
2016,04,03,08,05,6.30
2016,04,03,08,06,6.30
2016,04,03,08,07,6.30
2016,04,03,08,08,6.30
2016,04,03,08,09,6.40
2016,04,03,08,10,6.40
2016,04,03,08,11,6.40
2016,04,03,08,12,6.40
2016,04,03,08,13,6.40
2016,04,03,08,14,6.50
2016,04,03,08,15,6.50
2016,04,03,08,16,6.50
2016,04,03,08,17,6.60
2016,04,03,08,18,6.60
2016,04,03,08,19,6.70
2016,04,03,08,20,6.70
2016,04,03,08,21,6.70
2016,04,03,08,22,6.80
2016,04,03,08,23,6.80
2016,04,03,08,24,6.90
2016,04,03,08,25,6.90
2016,04,03,08,26,6.90
2016,04,03,08,27,7.00
2016,04,03,08,28,7.00
2016,04,03,08,29,7.10
2016,04,03,08,30,7.10
2016,04,03,08,31,7.20
2016,04,03,08,32,7.20
2016,04,03,08,33,7.20
2016,04,03,08,34,7.30
2016,04,03,08,35,7.30
2016,04,03,08,36,7.30
2016,04,03,08,37,7.40
2016,04,03,08,38,7.40
2016,04,03,08,39,7.40
2016,04,03,08,40,7.50
2016,04,03,08,41,7.50
2016,04,03,08,42,7.60
2016,04,03,08,43,7.70
2016,04,03,08,44,7.80
2016,04,03,08,45,7.80
2016,04,03,08,46,7.80
2016,04,03,08,47,7.80
2016,04,03,08,48,7.80
2016,04,03,08,49,7.80
2016,04,03,08,50,7.90
2016,04,03,08,51,7.90
2016,04,03,08,52,7.90
2016,04,03,08,53,8.00
2016,04,03,08,54,8.00
2016,04,03,08,55,8.10
2016,04,03,08,56,8.10
2016,04,03,08,57,8.10
2016,04,03,08,58,8.10
2016,04,03,08,59,8.10
2016,04,03,09,00,8.10
2016,04,03,09,01,8.10
2016,04,03,09,02,8.10
2016,04,03,09,03,8.10
2016,04,03,09,04,8.10
2016,04,03,09,05,8.20
2016,04,03,09,06,8.20
2016,04,03,09,07,8.30
2016,04,03,09,08,8.30
2016,04,03,09,09,8.40
2016,04,03,09,10,8.40
2016,04,03,09,11,8.50
2016,04,03,09,12,8.50
2016,04,03,09,13,8.60
2016,04,03,09,14,8.60
2016,04,03,09,15,8.60
2016,04,03,09,16,8.70
2016,04,03,09,17,8.70
2016,04,03,09,18,8.80
2016,04,03,09,19,8.80
2016,04,03,09,20,8.80
2016,04,03,09,21,8.90
2016,04,03,09,22,9.00
2016,04,03,09,23,9.10
2016,04,03,09,24,9.20
2016,04,03,09,25,9.30
2016,04,03,09,26,9.40
2016,04,03,09,27,9.40
2016,04,03,09,28,9.50
2016,04,03,09,29,9.60
2016,04,03,09,30,9.70
2016,04,03,09,31,9.80
2016,04,03,09,32,9.80
2016,04,03,09,33,9.80
2016,04,03,09,34,9.80
2016,04,03,09,35,9.80
2016,04,03,09,36,9.80
2016,04,03,09,37,9.80
2016,04,03,09,38,9.80
2016,04,03,09,39,9.80
2016,04,03,09,40,9.80
2016,04,03,09,41,9.80
2016,04,03,09,42,9.80
2016,04,03,09,43,9.70
2016,04,03,09,44,9.70
2016,04,03,09,45,9.70
2016,04,03,09,46,9.60
2016,04,03,09,47,9.50
2016,04,03,09,48,9.50
2016,04,03,09,49,9.50
2016,04,03,09,50,9.40
2016,04,03,09,51,9.40
2016,04,03,09,52,9.40
2016,04,03,09,53,9.40
2016,04,03,09,54,9.40
2016,04,03,09,55,9.40
2016,04,03,09,56,9.40
2016,04,03,09,57,9.50
2016,04,03,09,58,9.50
2016,04,03,09,59,9.50
2016,04,03,10,00,9.50
2016,04,03,10,01,9.50
2016,04,03,10,02,9.60
2016,04,03,10,03,9.50
2016,04,03,10,04,9.50
2016,04,03,10,05,9.60
2016,04,03,10,06,9.60
2016,04,03,10,07,9.60
2016,04,03,10,08,9.60
2016,04,03,10,09,9.70
2016,04,03,10,10,9.70
2016,04,03,10,11,9.80
2016,04,03,10,12,9.80
2016,04,03,10,13,9.90
2016,04,03,10,14,10.00
2016,04,03,10,15,10.00
2016,04,03,10,16,10.10
2016,04,03,10,17,10.20
2016,04,03,10,18,10.20
2016,04,03,10,19,10.30
2016,04,03,10,20,10.30
2016,04,03,10,21,10.40
2016,04,03,10,22,10.50
2016,04,03,10,23,10.60
2016,04,03,10,24,10.60
2016,04,03,10,25,10.70
2016,04,03,10,26,10.70
2016,04,03,10,27,10.80
2016,04,03,10,28,10.80
2016,04,03,10,29,10.80
2016,04,03,10,30,10.80
2016,04,03,10,31,10.80
2016,04,03,10,32,10.80
2016,04,03,10,33,10.90
2016,04,03,10,34,10.90
2016,04,03,10,35,11.00
2016,04,03,10,36,11.00
2016,04,03,10,37,11.10
2016,04,03,10,38,11.20
2016,04,03,10,39,11.20
2016,04,03,10,40,11.30
2016,04,03,10,41,11.30
2016,04,03,10,42,11.30
2016,04,03,10,43,11.40
2016,04,03,10,44,11.40
2016,04,03,10,45,11.30
2016,04,03,10,46,11.30
2016,04,03,10,47,11.30
2016,04,03,10,48,11.30
2016,04,03,10,49,11.40
2016,04,03,10,50,11.40
2016,04,03,10,51,11.40
2016,04,03,10,52,11.40
2016,04,03,10,53,11.40
2016,04,03,10,54,11.40
2016,04,03,10,55,11.50
2016,04,03,10,56,11.50
2016,04,03,10,57,11.50
2016,04,03,10,58,11.50
2016,04,03,10,59,11.50
2016,04,03,11,00,11.50
2016,04,03,11,01,11.40
2016,04,03,11,02,11.50
2016,04,03,11,03,11.50
2016,04,03,11,04,11.50
2016,04,03,11,05,11.60
2016,04,03,11,06,11.60
2016,04,03,11,07,11.70
2016,04,03,11,08,11.70
2016,04,03,11,09,11.80
2016,04,03,11,10,11.90
2016,04,03,11,11,12.10
2016,04,03,11,12,12.20
2016,04,03,11,13,12.30
2016,04,03,11,14,12.40
2016,04,03,11,15,12.50
2016,04,03,11,16,12.70
2016,04,03,11,17,12.80
2016,04,03,11,18,13.00
2016,04,03,11,19,13.10
2016,04,03,11,20,13.20
2016,04,03,11,21,13.20
2016,04,03,11,22,13.20
2016,04,03,11,23,13.20
2016,04,03,11,24,13.20
2016,04,03,11,25,13.20
2016,04,03,11,26,13.30
2016,04,03,11,27,13.30
2016,04,03,11,28,13.40
2016,04,03,11,29,13.50
2016,04,03,11,30,13.50
2016,04,03,11,31,13.50
2016,04,03,11,32,13.50
2016,04,03,11,33,13.40
2016,04,03,11,34,13.30
2016,04,03,11,35,13.20
2016,04,03,11,36,13.10
2016,04,03,11,37,13.10
2016,04,03,11,38,13.10
2016,04,03,11,39,13.10
2016,04,03,11,40,13.00
2016,04,03,11,41,13.00
2016,04,03,11,42,13.00
2016,04,03,11,43,12.90
2016,04,03,11,44,12.90
2016,04,03,11,45,12.80
2016,04,03,11,46,12.80
2016,04,03,11,47,12.70
2016,04,03,11,48,12.60
2016,04,03,11,49,12.60
2016,04,03,11,50,12.60
2016,04,03,11,51,12.60
2016,04,03,11,52,12.70
2016,04,03,11,53,12.80
2016,04,03,11,54,12.80
2016,04,03,11,55,12.80
2016,04,03,11,56,12.80
2016,04,03,11,57,12.90
2016,04,03,11,58,12.90
2016,04,03,11,59,13.00
2016,04,03,12,00,13.10
2016,04,03,12,01,13.10
2016,04,03,12,02,13.20
2016,04,03,12,03,13.30
2016,04,03,12,04,13.40
2016,04,03,12,05,13.50
2016,04,03,12,06,13.60
2016,04,03,12,07,13.70
2016,04,03,12,08,13.80
2016,04,03,12,09,13.90
2016,04,03,12,10,14.00
2016,04,03,12,11,14.00
2016,04,03,12,12,13.90
2016,04,03,12,13,14.00
2016,04,03,12,14,14.00
2016,04,03,12,15,14.10
2016,04,03,12,16,14.20
2016,04,03,12,17,14.20
2016,04,03,12,18,14.20
2016,04,03,12,19,14.20
2016,04,03,12,20,14.20
2016,04,03,12,21,14.20
2016,04,03,12,22,14.20
2016,04,03,12,23,14.20
2016,04,03,12,24,14.30
2016,04,03,12,25,14.30
2016,04,03,12,26,14.30
2016,04,03,12,27,14.20
2016,04,03,12,28,14.20
2016,04,03,12,29,14.10
2016,04,03,12,30,14.00
2016,04,03,12,31,14.00
2016,04,03,12,32,13.90
2016,04,03,12,33,13.80
2016,04,03,12,34,13.80
2016,04,03,12,35,13.80
2016,04,03,12,36,13.80
2016,04,03,12,37,13.70
2016,04,03,12,38,13.80
2016,04,03,12,39,13.80
2016,04,03,12,40,13.80
2016,04,03,12,41,13.80
2016,04,03,12,42,13.80
2016,04,03,12,43,13.80
2016,04,03,12,44,13.70
2016,04,03,12,45,13.70
2016,04,03,12,46,13.70
2016,04,03,12,47,13.60
2016,04,03,12,48,13.50
2016,04,03,12,49,13.40
2016,04,03,12,50,13.30
2016,04,03,12,51,13.30
2016,04,03,12,52,13.30
2016,04,03,12,53,13.30
2016,04,03,12,54,13.30
2016,04,03,12,55,13.40
2016,04,03,12,56,13.40
2016,04,03,12,57,13.40
2016,04,03,12,58,13.50
2016,04,03,12,59,13.50
2016,04,03,13,00,13.60
2016,04,03,13,01,13.60
2016,04,03,13,02,13.70
2016,04,03,13,03,13.70
2016,04,03,13,04,13.70
2016,04,03,13,05,13.70
2016,04,03,13,06,13.70
2016,04,03,13,07,13.70
2016,04,03,13,08,13.80
2016,04,03,13,09,13.80
2016,04,03,13,10,13.80
2016,04,03,13,11,13.80
2016,04,03,13,12,13.80
2016,04,03,13,13,13.80
2016,04,03,13,14,13.80
2016,04,03,13,15,13.70
2016,04,03,13,16,13.60
2016,04,03,13,17,13.60
2016,04,03,13,18,13.60
2016,04,03,13,19,13.70
2016,04,03,13,20,13.80
2016,04,03,13,21,13.80
2016,04,03,13,22,13.80
2016,04,03,13,23,13.80
2016,04,03,13,24,13.80
2016,04,03,13,25,13.70
2016,04,03,13,26,13.70
2016,04,03,13,27,13.70
2016,04,03,13,28,13.70
2016,04,03,13,29,13.70
2016,04,03,13,30,13.70
2016,04,03,13,31,13.70
2016,04,03,13,32,13.80
2016,04,03,13,33,13.80
2016,04,03,13,34,13.90
2016,04,03,13,35,13.90
2016,04,03,13,36,14.00
2016,04,03,13,37,14.10
2016,04,03,13,38,14.20
2016,04,03,13,39,14.30
2016,04,03,13,40,14.40
2016,04,03,13,41,14.40
2016,04,03,13,42,14.50
2016,04,03,13,43,14.60
2016,04,03,13,44,14.60
2016,04,03,13,45,14.60
2016,04,03,13,46,14.60
2016,04,03,13,47,14.50
2016,04,03,13,48,14.40
2016,04,03,13,49,14.30
2016,04,03,13,50,14.10
2016,04,03,13,51,14.00
2016,04,03,13,52,13.80
2016,04,03,13,53,13.70
2016,04,03,13,54,13.60
2016,04,03,13,55,13.50
2016,04,03,13,56,13.50
2016,04,03,13,57,13.40
2016,04,03,13,58,13.50
2016,04,03,13,59,13.50
2016,04,03,14,00,13.60
2016,04,03,14,01,13.70
2016,04,03,14,02,13.70
2016,04,03,14,03,13.80
2016,04,03,14,04,13.80
2016,04,03,14,05,13.80
2016,04,03,14,06,13.80
2016,04,03,14,07,13.80
2016,04,03,14,08,13.80
2016,04,03,14,09,13.80
2016,04,03,14,10,13.70
2016,04,03,14,11,13.70
2016,04,03,14,12,13.60
2016,04,03,14,13,13.60
2016,04,03,14,14,13.60
2016,04,03,14,15,13.60
2016,04,03,14,16,13.50
2016,04,03,14,17,13.50
2016,04,03,14,18,13.50
2016,04,03,14,19,13.50
2016,04,03,14,20,13.50
2016,04,03,14,21,13.60
2016,04,03,14,22,13.60
2016,04,03,14,23,13.60
2016,04,03,14,24,13.60
2016,04,03,14,25,13.70
2016,04,03,14,26,13.70
2016,04,03,14,27,13.80
2016,04,03,14,28,13.80
2016,04,03,14,29,13.90
2016,04,03,14,30,13.90
2016,04,03,14,31,13.90
2016,04,03,14,32,14.00
2016,04,03,14,33,14.00
2016,04,03,14,34,14.00
2016,04,03,14,35,14.00
2016,04,03,14,36,14.00
2016,04,03,14,37,14.00
2016,04,03,14,38,14.00
2016,04,03,14,39,14.00
2016,04,03,14,40,14.00
2016,04,03,14,41,13.90
2016,04,03,14,42,13.90
2016,04,03,14,43,13.90
2016,04,03,14,44,14.00
2016,04,03,14,45,14.00
2016,04,03,14,46,14.00
2016,04,03,14,47,14.10
2016,04,03,14,48,14.10
2016,04,03,14,49,14.20
2016,04,03,14,50,14.30
2016,04,03,14,51,14.30
2016,04,03,14,52,14.30
2016,04,03,14,53,14.30
2016,04,03,14,54,14.40
2016,04,03,14,55,14.40
2016,04,03,14,56,14.40
2016,04,03,14,57,14.40
2016,04,03,14,58,14.50
2016,04,03,14,59,14.50
2016,04,03,15,00,14.50
2016,04,03,15,01,14.50
2016,04,03,15,02,14.40
2016,04,03,15,03,14.40
2016,04,03,15,04,14.30
2016,04,03,15,05,14.20
2016,04,03,15,06,14.20
2016,04,03,15,07,14.20
2016,04,03,15,08,14.20
2016,04,03,15,09,14.20
2016,04,03,15,10,14.20
2016,04,03,15,11,14.10
2016,04,03,15,12,14.00
2016,04,03,15,13,13.80
2016,04,03,15,14,13.70
2016,04,03,15,15,13.50
2016,04,03,15,16,13.40
2016,04,03,15,17,13.30
2016,04,03,15,18,13.30
2016,04,03,15,19,13.20
2016,04,03,15,20,13.10
2016,04,03,15,21,13.00
2016,04,03,15,22,12.90
2016,04,03,15,23,12.80
2016,04,03,15,24,12.80
2016,04,03,15,25,12.70
2016,04,03,15,26,12.70
2016,04,03,15,27,12.70
2016,04,03,15,28,12.70
2016,04,03,15,29,12.60
2016,04,03,15,30,12.60
2016,04,03,15,31,12.50
2016,04,03,15,32,12.50
2016,04,03,15,33,12.40
2016,04,03,15,34,12.50
2016,04,03,15,35,12.50
2016,04,03,15,36,12.50
2016,04,03,15,37,12.60
2016,04,03,15,38,12.60
2016,04,03,15,39,12.70
2016,04,03,15,40,12.70
2016,04,03,15,41,12.70
2016,04,03,15,42,12.70
2016,04,03,15,43,12.70
2016,04,03,15,44,12.60
2016,04,03,15,45,12.50
2016,04,03,15,46,12.50
2016,04,03,15,47,12.40
2016,04,03,15,48,12.40
2016,04,03,15,49,12.30
2016,04,03,15,50,12.30
2016,04,03,15,51,12.30
2016,04,03,15,52,12.30
2016,04,03,15,53,12.40
2016,04,03,15,54,12.40
2016,04,03,15,55,12.40
2016,04,03,15,56,12.50
2016,04,03,15,57,12.50
2016,04,03,15,58,12.60
2016,04,03,15,59,12.60
2016,04,03,16,00,12.70
2016,04,03,16,01,12.70
2016,04,03,16,02,12.70
2016,04,03,16,03,12.70
2016,04,03,16,04,12.70
2016,04,03,16,05,12.80
2016,04,03,16,06,12.80
2016,04,03,16,07,12.80
2016,04,03,16,08,12.80
2016,04,03,16,09,12.80
2016,04,03,16,10,12.90
2016,04,03,16,11,12.90
2016,04,03,16,12,12.80
2016,04,03,16,13,12.80
2016,04,03,16,14,12.80
2016,04,03,16,15,12.80
2016,04,03,16,16,12.70
2016,04,03,16,17,12.70
2016,04,03,16,18,12.70
2016,04,03,16,19,12.70
2016,04,03,16,20,12.70
2016,04,03,16,21,12.70
2016,04,03,16,22,12.70
2016,04,03,16,23,12.70
2016,04,03,16,24,12.60
2016,04,03,16,25,12.60
2016,04,03,16,26,12.70
2016,04,03,16,27,12.70
2016,04,03,16,28,12.70
2016,04,03,16,29,12.70
2016,04,03,16,30,12.70
2016,04,03,16,31,12.60
2016,04,03,16,32,12.70
2016,04,03,16,33,12.60
2016,04,03,16,34,12.70
2016,04,03,16,35,12.70
2016,04,03,16,36,12.70
2016,04,03,16,37,12.70
2016,04,03,16,38,12.70
2016,04,03,16,39,12.70
2016,04,03,16,40,12.70
2016,04,03,16,41,12.70
2016,04,03,16,42,12.70
2016,04,03,16,43,12.70
2016,04,03,16,44,12.70
2016,04,03,16,45,12.70
2016,04,03,16,46,12.70
2016,04,03,16,47,12.70
2016,04,03,16,48,12.70
2016,04,03,16,49,12.70
2016,04,03,16,50,12.70
2016,04,03,16,51,12.70
2016,04,03,16,52,12.70
2016,04,03,16,53,12.60
2016,04,03,16,54,12.60
2016,04,03,16,55,12.60
2016,04,03,16,56,12.50
2016,04,03,16,57,12.50
2016,04,03,16,58,12.50
2016,04,03,16,59,12.50
2016,04,03,17,00,12.60
2016,04,03,17,01,12.60
2016,04,03,17,02,12.60
2016,04,03,17,03,12.60
2016,04,03,17,04,12.60
2016,04,03,17,05,12.60
2016,04,03,17,06,12.60
2016,04,03,17,07,12.60
2016,04,03,17,08,12.60
2016,04,03,17,09,12.60
2016,04,03,17,10,12.60
2016,04,03,17,11,12.60
2016,04,03,17,12,12.60
2016,04,03,17,13,12.60
2016,04,03,17,14,12.60
2016,04,03,17,15,12.60
2016,04,03,17,16,12.60
2016,04,03,17,17,12.60
2016,04,03,17,18,12.70
2016,04,03,17,19,12.70
2016,04,03,17,20,12.70
2016,04,03,17,21,12.70
2016,04,03,17,22,12.70
2016,04,03,17,23,12.70
2016,04,03,17,24,12.80
2016,04,03,17,25,12.80
2016,04,03,17,26,12.80
2016,04,03,17,27,12.80
2016,04,03,17,28,12.90
2016,04,03,17,29,12.90
2016,04,03,17,30,12.90
2016,04,03,17,31,12.90
2016,04,03,17,32,12.90
2016,04,03,17,33,13.00
2016,04,03,17,34,13.00
2016,04,03,17,35,13.00
2016,04,03,17,36,13.10
2016,04,03,17,37,13.10
2016,04,03,17,38,13.10
2016,04,03,17,39,13.20
2016,04,03,17,40,13.20
2016,04,03,17,41,13.20
2016,04,03,17,42,13.20
2016,04,03,17,43,13.20
2016,04,03,17,44,13.30
2016,04,03,17,45,13.30
2016,04,03,17,46,13.30
2016,04,03,17,47,13.30
2016,04,03,17,48,13.40
2016,04,03,17,49,13.40